| time (UTC) | temp F | wind direction | speed MPH | gust MPH | rain 1hr in | rain 24hr in | rain mn in | humidity % | barometer mb |
| 20260902152537 | 74 | 161 | 2.0 | 5.0 | 0.00 | 0.00 | 0.00 | 41 | 1018.9 |
| 20260902152041 | 73 | 158 | 2.0 | 5.0 | 0.00 | 0.00 | 0.00 | 44 | 1018.9 |
| 20260902151550 | 73 | 0 | 2.0 | 6.0 | 0.00 | 0.00 | 0.00 | 46 | 1018.9 |
| 20260902151034 | 72 | 0 | 0.0 | 6.0 | 0.00 | 0.00 | 0.00 | 47 | 1018.9 |
| 20260902150537 | 71 | 206 | 3.0 | 6.0 | 0.00 | 0.00 | 0.00 | 50 | 1019.0 |
| 20260902150058 | 71 | 147 | 0.0 | 3.0 | 0.00 | 0.00 | 0.00 | 49 | 1018.8 |
| 20260902145538 | 71 | 0 | 0.0 | 3.0 | 0.00 | 0.00 | 0.00 | 51 | 1018.9 |
| 20260902145037 | 70 | 114 | 1.0 | 3.0 | 0.00 | 0.00 | 0.00 | 52 | 1018.8 |
| 20260902144559 | 69 | 29 | 1.0 | 3.0 | 0.00 | 0.00 | 0.00 | 51 | 1018.8 |
| 20260902144038 | 67 | 246 | 0.0 | 3.0 | 0.00 | 0.00 | 0.00 | 55 | 1018.9 |
| 20260902143537 | 66 | 45 | 1.0 | 4.0 | 0.00 | 0.00 | 0.00 | 57 | 1018.8 |
| 20260902143054 | 65 | 0 | 0.0 | 4.0 | 0.00 | 0.00 | 0.00 | 59 | 1018.9 |
| 20260902142537 | 64 | 181 | 1.0 | 4.0 | 0.00 | 0.00 | 0.00 | 62 | 1018.8 |
| 20260902142033 | 63 | 50 | 1.0 | 3.0 | 0.00 | 0.00 | 0.00 | 63 | 1018.9 |
| 20260902141552 | 63 | 0 | 1.0 | 4.0 | 0.00 | 0.00 | 0.00 | 64 | 1018.8 |
| 20260902141037 | 62 | 221 | 0.0 | 4.0 | 0.00 | 0.00 | 0.00 | 66 | 1018.7 |
| 20260902140534 | 61 | 4 | 1.0 | 4.0 | 0.00 | 0.00 | 0.00 | 67 | 1018.6 |
| 20260902140058 | 60 | 274 | 1.0 | 4.0 | 0.00 | 0.00 | 0.00 | 68 | 1018.6 |
| 20260902135536 | 60 | 0 | 0.0 | 4.0 | 0.00 | 0.00 | 0.00 | 68 | 1018.6 |
| 20260902135038 | 60 | 0 | 0.0 | 3.0 | 0.00 | 0.00 | 0.00 | 68 | 1018.6 |
| 20260902134610 | 60 | 241 | 1.0 | 3.0 | 0.00 | 0.00 | 0.00 | 67 | 1018.6 |
| 20260902134034 | 59 | 255 | 0.0 | 4.0 | 0.00 | 0.00 | 0.00 | 67 | 1018.5 |
| 20260902133537 | 59 | 332 | 1.0 | 4.0 | 0.00 | 0.00 | 0.00 | 68 | 1018.4 |
| 20260902133055 | 58 | 269 | 0.0 | 2.0 | 0.00 | 0.00 | 0.00 | 67 | 1018.4 |
| 20260902132537 | 58 | 272 | 0.0 | 2.0 | 0.00 | 0.00 | 0.00 | 68 | 1018.4 |
| 20260902132037 | 58 | 347 | 0.0 | 2.0 | 0.00 | 0.00 | 0.00 | 69 | 1018.4 |
| 20260902131549 | 57 | 0 | 0.0 | 2.0 | 0.00 | 0.00 | 0.00 | 71 | 1018.3 |
| 20260902131039 | 56 | 0 | 0.0 | 2.0 | 0.00 | 0.00 | 0.00 | 71 | 1018.4 |
| 20260902130534 | 56 | 0 | 0.0 | 3.0 | 0.00 | 0.00 | 0.00 | 72 | 1018.3 |
| 20260902130059 | 56 | 0 | 0.0 | 3.0 | 0.00 | 0.00 | 0.00 | 72 | 1018.2 |
| 20260902125537 | 56 | 298 | 1.0 | 3.0 | 0.00 | 0.00 | 0.00 | 73 | 1018.1 |
| 20260902125038 | 56 | 0 | 0.0 | 2.0 | 0.00 | 0.00 | 0.00 | 74 | 1018.2 |
| 20260902124556 | 56 | 0 | 0.0 | 4.0 | 0.00 | 0.00 | 0.00 | 74 | 1018.2 |
| 20260902124037 | 56 | 313 | 1.0 | 4.0 | 0.00 | 0.00 | 0.00 | 74 | 1018.3 |
| 20260902123537 | 56 | 272 | 1.0 | 3.0 | 0.00 | 0.00 | 0.00 | 72 | 1018.3 |
| 20260902123058 | 56 | 0 | 1.0 | 4.0 | 0.00 | 0.00 | 0.00 | 72 | 1018.2 |
| 20260902122542 | 56 | 292 | 0.0 | 4.0 | 0.00 | 0.00 | 0.00 | 71 | 1018.1 |
| 20260902122037 | 57 | 296 | 1.0 | 8.0 | 0.00 | 0.00 | 0.00 | 71 | 1018.1 |
| 20260902121549 | 57 | 0 | 0.0 | 8.0 | 0.00 | 0.00 | 0.00 | 71 | 1017.9 |
| 20260902121037 | 57 | 240 | 2.0 | 7.0 | 0.00 | 0.00 | 0.00 | 74 | 1018.0 |
| 20260902120536 | 57 | 243 | 1.0 | 5.0 | 0.00 | 0.00 | 0.00 | 70 | 1017.9 |
| 20260902120100 | 57 | 122 | 2.0 | 5.0 | 0.00 | 0.00 | 0.00 | 71 | 1017.9 |
| 20260902115537 | 57 | 0 | 0.0 | 2.0 | 0.00 | 0.00 | 0.00 | 69 | 1017.9 |
| 20260902115038 | 56 | 237 | 0.0 | 2.0 | 0.00 | 0.00 | 0.00 | 71 | 1017.8 |
| 20260902114556 | 56 | 0 | 0.0 | 2.0 | 0.00 | 0.00 | 0.00 | 72 | 1017.8 |
| 20260902114036 | 56 | 237 | 1.0 | 3.0 | 0.00 | 0.00 | 0.00 | 71 | 1017.9 |
| 20260902113537 | 56 | 0 | 1.0 | 4.0 | 0.00 | 0.00 | 0.00 | 71 | 1017.9 |
| 20260902113054 | 56 | 0 | 0.0 | 4.0 | 0.00 | 0.00 | 0.00 | 72 | 1017.8 |
| 20260902112537 | 56 | 237 | 2.0 | 4.0 | 0.00 | 0.00 | 0.00 | 71 | 1017.9 |
| 20260902112036 | 57 | 0 | 1.0 | 3.0 | 0.00 | 0.00 | 0.00 | 71 | 1017.9 |
| 20260902111558 | 57 | 242 | 1.0 | 3.0 | 0.00 | 0.00 | 0.00 | 72 | 1017.9 |
| 20260902111034 | 57 | 0 | 0.0 | 1.0 | 0.00 | 0.00 | 0.00 | 73 | 1017.9 |
| 20260902110537 | 57 | 0 | 0.0 | 1.0 | 0.00 | 0.00 | 0.00 | 74 | 1017.9 |
| 20260902110055 | 58 | 0 | 0.0 | 2.0 | 0.00 | 0.00 | 0.00 | 74 | 1017.8 |
| 20260902105537 | 58 | 0 | 0.0 | 2.0 | 0.00 | 0.00 | 0.00 | 74 | 1017.8 |
| 20260902105038 | 57 | 0 | 0.0 | 2.0 | 0.00 | 0.00 | 0.00 | 74 | 1017.7 |
| 20260902104553 | 57 | 337 | 0.0 | 3.0 | 0.00 | 0.00 | 0.00 | 73 | 1017.7 |
| 20260902104038 | 57 | 337 | 0.0 | 3.0 | 0.00 | 0.00 | 0.00 | 73 | 1017.7 |
| 20260902103537 | 57 | 304 | 1.0 | 3.0 | 0.00 | 0.00 | 0.00 | 74 | 1017.8 |
| 20260902103051 | 58 | 342 | 1.0 | 3.0 | 0.00 | 0.00 | 0.00 | 73 | 1017.8 |
| 20260902102537 | 58 | 2 | 1.0 | 3.0 | 0.00 | 0.00 | 0.00 | 72 | 1017.8 |
| 20260902102038 | 58 | 0 | 0.0 | 4.0 | 0.00 | 0.00 | 0.00 | 72 | 1017.8 |
| 20260902101556 | 58 | 316 | 0.0 | 4.0 | 0.00 | 0.00 | 0.00 | 70 | 1017.8 |
| 20260902101037 | 59 | 347 | 2.0 | 4.0 | 0.00 | 0.00 | 0.00 | 69 | 1017.8 |
| 20260902100538 | 59 | 342 | 2.0 | 3.0 | 0.00 | 0.00 | 0.00 | 68 | 1017.8 |
| 20260902100057 | 59 | 6 | 2.0 | 3.0 | 0.00 | 0.00 | 0.00 | 68 | 1017.9 |
| 20260902095538 | 59 | 5 | 0.0 | 3.0 | 0.00 | 0.00 | 0.00 | 68 | 1017.9 |
| 20260902095037 | 59 | 0 | 1.0 | 3.0 | 0.00 | 0.00 | 0.00 | 67 | 1017.9 |
| 20260902094557 | 60 | 360 | 1.0 | 3.0 | 0.00 | 0.00 | 0.00 | 67 | 1017.8 |
| 20260902094037 | 60 | 273 | 0.0 | 5.0 | 0.00 | 0.00 | 0.00 | 65 | 1017.9 |
| 20260902093537 | 60 | 17 | 1.0 | 5.0 | 0.00 | 0.00 | 0.00 | 65 | 1017.8 |
| 20260902093056 | 59 | 53 | 2.0 | 5.0 | 0.00 | 0.00 | 0.00 | 67 | 1017.9 |
| 20260902092534 | 59 | 27 | 1.0 | 3.0 | 0.00 | 0.00 | 0.00 | 68 | 1018.0 |
| 20260902092037 | 59 | 356 | 1.0 | 3.0 | 0.00 | 0.00 | 0.00 | 69 | 1018.0 |
| 20260902091557 | 59 | 36 | 2.0 | 4.0 | 0.00 | 0.00 | 0.00 | 70 | 1017.9 |
| 20260902091037 | 59 | 10 | 1.0 | 4.0 | 0.00 | 0.00 | 0.00 | 70 | 1017.9 |
| 20260902090538 | 58 | 42 | 2.0 | 4.0 | 0.00 | 0.00 | 0.00 | 70 | 1017.9 |
| 20260902090055 | 58 | 3 | 2.0 | 4.0 | 0.00 | 0.00 | 0.00 | 68 | 1017.9 |
| 20260902085537 | 59 | 324 | 1.0 | 4.0 | 0.00 | 0.00 | 0.00 | 68 | 1017.9 |
| 20260902085037 | 59 | 315 | 0.0 | 3.0 | 0.00 | 0.00 | 0.00 | 68 | 1017.9 |
| 20260902084603 | 59 | 306 | 0.0 | 3.0 | 0.00 | 0.00 | 0.00 | 68 | 1017.9 |
| 20260902084037 | 59 | 0 | 1.0 | 4.0 | 0.00 | 0.00 | 0.00 | 68 | 1017.9 |
| 20260902083538 | 59 | 310 | 1.0 | 4.0 | 0.00 | 0.00 | 0.00 | 69 | 1017.9 |
| 20260902083105 | 59 | 303 | 1.0 | 4.0 | 0.00 | 0.00 | 0.00 | 70 | 1017.8 |
| 20260902082538 | 59 | 319 | 0.0 | 5.0 | 0.00 | 0.00 | 0.00 | 71 | 1017.9 |
| 20260902082036 | 59 | 356 | 2.0 | 5.0 | 0.00 | 0.00 | 0.00 | 70 | 1017.7 |
| 20260902081557 | 59 | 29 | 3.0 | 4.0 | 0.00 | 0.00 | 0.00 | 72 | 1017.7 |
| 20260902081037 | 59 | 11 | 2.0 | 4.0 | 0.00 | 0.00 | 0.00 | 74 | 1017.7 |
| 20260902080537 | 59 | 4 | 0.0 | 3.0 | 0.00 | 0.00 | 0.00 | 74 | 1017.8 |
| 20260902080058 | 59 | 0 | 0.0 | 2.0 | 0.00 | 0.00 | 0.00 | 74 | 1017.8 |
| 20260902075536 | 59 | 0 | 0.0 | 3.0 | 0.00 | 0.00 | 0.00 | 74 | 1018.0 |
| 20260902075040 | 59 | 0 | 0.0 | 3.0 | 0.00 | 0.00 | 0.00 | 73 | 1018.0 |
| 20260902074608 | 60 | 357 | 1.0 | 3.0 | 0.00 | 0.00 | 0.00 | 73 | 1017.9 |
| 20260902074037 | 60 | 342 | 0.0 | 3.0 | 0.00 | 0.00 | 0.00 | 71 | 1018.0 |
| 20260902073537 | 60 | 317 | 0.0 | 3.0 | 0.00 | 0.00 | 0.00 | 71 | 1018.0 |
| 20260902073057 | 60 | 0 | 0.0 | 3.0 | 0.00 | 0.00 | 0.00 | 71 | 1018.0 |
| 20260902072538 | 60 | 0 | 0.0 | 4.0 | 0.00 | 0.00 | 0.00 | 72 | 1018.0 |
| 20260902072037 | 60 | 322 | 0.0 | 4.0 | 0.00 | 0.00 | 0.00 | 72 | 1018.1 |
| 20260902071558 | 61 | 26 | 2.0 | 4.0 | 0.00 | 0.00 | 0.00 | 73 | 1018.1 |
| 20260902071037 | 61 | 27 | 0.0 | 3.0 | 0.00 | 0.00 | 0.00 | 71 | 1018.1 |
| 20260902070536 | 61 | 0 | 0.0 | 3.0 | 0.00 | 0.00 | 0.00 | 70 | 1018.1 |
| 20260902065536 | 62 | 2 | 0.0 | 4.0 | 0.00 | 0.00 | 0.00 | 70 | 1018.0 |
| 20260902065036 | 62 | 4 | 1.0 | 4.0 | 0.00 | 0.00 | 0.00 | 69 | 1018.1 |
| 20260902064556 | 62 | 356 | 2.0 | 5.0 | 0.00 | 0.00 | 0.00 | 69 | 1018.2 |
| 20260902064036 | 62 | 4 | 2.0 | 5.0 | 0.00 | 0.00 | 0.00 | 67 | 1018.1 |
| 20260902063536 | 63 | 360 | 2.0 | 4.0 | 0.00 | 0.00 | 0.00 | 66 | 1018.1 |
| 20260902063112 | 63 | 317 | 1.0 | 3.0 | 0.00 | 0.00 | 0.00 | 66 | 1018.1 |
| 20260902062537 | 64 | 0 | 0.0 | 2.0 | 0.00 | 0.00 | 0.00 | 69 | 1018.1 |
| 20260902062037 | 64 | 335 | 0.0 | 2.0 | 0.00 | 0.00 | 0.00 | 65 | 1018.1 |
| 20260902061553 | 64 | 335 | 1.0 | 2.0 | 0.00 | 0.00 | 0.00 | 69 | 1018.1 |
| 20260902061037 | 64 | 0 | 0.0 | 2.0 | 0.00 | 0.00 | 0.00 | 70 | 1018.2 |
| 20260902060539 | 64 | 0 | 0.0 | 2.0 | 0.00 | 0.00 | 0.00 | 63 | 1018.2 |
| 20260902060122 | 64 | 0 | 0.0 | 2.0 | 0.00 | 0.00 | 0.00 | 65 | 1018.2 |
| 20260902055537 | 64 | 0 | 0.0 | 2.0 | 0.00 | 0.00 | 0.00 | 69 | 1018.3 |
| 20260902055034 | 64 | 50 | 0.0 | 2.0 | 0.00 | 0.00 | 0.00 | 72 | 1018.3 |
| 20260902054609 | 64 | 0 | 0.0 | 2.0 | 0.00 | 0.00 | 0.00 | 69 | 1018.2 |
| 20260902054036 | 64 | 0 | 0.0 | 1.0 | 0.00 | 0.00 | 0.00 | 69 | 1018.1 |
| 20260902053536 | 64 | 0 | 0.0 | 2.0 | 0.00 | 0.00 | 0.00 | 65 | 1018.2 |
| 20260902053055 | 64 | 0 | 0.0 | 2.0 | 0.00 | 0.00 | 0.00 | 65 | 1018.2 |
| 20260902052540 | 64 | 0 | 0.0 | 2.0 | 0.00 | 0.00 | 0.00 | 67 | 1018.1 |
| 20260902052037 | 64 | 0 | 0.0 | 4.0 | 0.00 | 0.00 | 0.00 | 66 | 1018.1 |
| 20260902051558 | 64 | 53 | 1.0 | 4.0 | 0.00 | 0.00 | 0.00 | 69 | 1018.1 |
| 20260902051037 | 65 | 320 | 0.0 | 1.0 | 0.00 | 0.00 | 0.00 | 68 | 1018.1 |
| 20260902050537 | 65 | 0 | 0.0 | 1.0 | 0.00 | 0.00 | 0.00 | 65 | 1018.0 |
| 20260902045538 | 65 | 0 | 0.0 | 1.0 | 0.00 | 0.02 | 0.00 | 67 | 1018.1 |
| 20260902045038 | 66 | 0 | 0.0 | 1.0 | 0.00 | 0.02 | 0.00 | 65 | 1018.2 |
| 20260902044602 | 66 | 0 | 0.0 | 2.0 | 0.00 | 0.02 | 0.00 | 59 | 1018.2 |
| 20260902044039 | 66 | 0 | 0.0 | 2.0 | 0.00 | 0.02 | 0.00 | 58 | 1018.3 |
| 20260902043538 | 66 | 328 | 0.0 | 3.0 | 0.00 | 0.02 | 0.00 | 58 | 1018.3 |
| 20260902043110 | 66 | 0 | 1.0 | 3.0 | 0.00 | 0.02 | 0.00 | 58 | 1018.3 |
| 20260902042538 | 66 | 129 | 1.0 | 5.0 | 0.00 | 0.02 | 0.00 | 57 | 1018.2 |
| 20260902042039 | 67 | 0 | 2.0 | 5.0 | 0.00 | 0.02 | 0.00 | 57 | 1018.3 |
| 20260902041604 | 67 | 0 | 0.0 | 3.0 | 0.00 | 0.02 | 0.00 | 55 | 1018.3 |
| 20260902041038 | 67 | 237 | 1.0 | 3.0 | 0.00 | 0.02 | 0.00 | 56 | 1018.3 |
| 20260902040539 | 68 | 268 | 0.0 | 4.0 | 0.00 | 0.02 | 0.00 | 59 | 1018.3 |
| 20260902040105 | 68 | 268 | 1.0 | 4.0 | 0.00 | 0.02 | 0.00 | 53 | 1018.2 |
| 20260902035538 | 68 | 229 | 1.0 | 4.0 | 0.00 | 0.02 | 0.00 | 54 | 1018.2 |
| 20260902035040 | 69 | 203 | 0.0 | 3.0 | 0.00 | 0.02 | 0.00 | 53 | 1018.1 |
| 20260902034614 | 69 | 0 | 0.0 | 3.0 | 0.00 | 0.02 | 0.00 | 51 | 1017.8 |
| 20260902034038 | 70 | 192 | 1.0 | 3.0 | 0.00 | 0.02 | 0.00 | 50 | 1017.8 |
| 20260902033538 | 70 | 0 | 0.0 | 2.0 | 0.00 | 0.02 | 0.00 | 49 | 1017.9 |
| 20260902033059 | 71 | 0 | 0.0 | 3.0 | 0.00 | 0.02 | 0.00 | 56 | 1018.0 |
| 20260902032539 | 71 | 0 | 0.0 | 3.0 | 0.00 | 0.02 | 0.00 | 51 | 1017.8 |
| 20260902032038 | 72 | 34 | 1.0 | 3.0 | 0.00 | 0.02 | 0.00 | 44 | 1017.8 |
| 20260902031559 | 72 | 0 | 0.0 | 3.0 | 0.00 | 0.02 | 0.00 | 43 | 1017.8 |
| 20260902031041 | 72 | 0 | 0.0 | 3.0 | 0.00 | 0.02 | 0.00 | 43 | 1017.8 |
| 20260902030540 | 72 | 90 | 1.0 | 4.0 | 0.00 | 0.02 | 0.00 | 45 | 1017.6 |
| 20260902030058 | 72 | 347 | 2.0 | 4.0 | 0.00 | 0.02 | 0.00 | 47 | 1017.6 |
| 20260902025539 | 72 | 150 | 2.0 | 4.0 | 0.00 | 0.02 | 0.00 | 47 | 1017.6 |
| 20260902025042 | 72 | 347 | 1.0 | 3.0 | 0.00 | 0.02 | 0.00 | 47 | 1017.6 |
| 20260902024559 | 72 | 82 | 1.0 | 3.0 | 0.00 | 0.02 | 0.00 | 48 | 1017.4 |
| 20260902024038 | 72 | 347 | 2.0 | 5.0 | 0.00 | 0.02 | 0.00 | 47 | 1017.3 |
| 20260902023538 | 73 | 61 | 2.0 | 6.0 | 0.00 | 0.02 | 0.00 | 47 | 1017.2 |
| 20260902023059 | 73 | 59 | 2.0 | 7.0 | 0.00 | 0.02 | 0.00 | 45 | 1017.2 |
| 20260902022539 | 73 | 78 | 2.0 | 7.0 | 0.00 | 0.02 | 0.00 | 45 | 1017.1 |
| 20260902022042 | 73 | 77 | 2.0 | 6.0 | 0.00 | 0.02 | 0.00 | 44 | 1017.1 |
| 20260902021557 | 73 | 73 | 2.0 | 5.0 | 0.00 | 0.02 | 0.00 | 44 | 1017.1 |
| 20260902021039 | 73 | 69 | 2.0 | 4.0 | 0.00 | 0.02 | 0.00 | 46 | 1017.1 |
| 20260902020539 | 73 | 76 | 1.0 | 4.0 | 0.00 | 0.02 | 0.00 | 49 | 1017.0 |
| 20260902020053 | 73 | 347 | 2.0 | 3.0 | 0.00 | 0.02 | 0.00 | 49 | 1017.0 |
| 20260902015545 | 73 | 162 | 0.0 | 4.0 | 0.00 | 0.02 | 0.00 | 50 | 1017.0 |
| 20260902015039 | 74 | 0 | 1.0 | 4.0 | 0.00 | 0.02 | 0.00 | 50 | 1016.9 |
| 20260902014558 | 75 | 176 | 1.0 | 3.0 | 0.00 | 0.02 | 0.00 | 48 | 1016.8 |
| 20260902014038 | 75 | 123 | 0.0 | 4.0 | 0.00 | 0.02 | 0.00 | 44 | 1016.8 |
| 20260902013540 | 76 | 325 | 1.0 | 4.0 | 0.00 | 0.02 | 0.00 | 41 | 1016.8 |
| 20260902013059 | 76 | 0 | 1.0 | 4.0 | 0.00 | 0.02 | 0.00 | 41 | 1016.8 |
| 20260902012541 | 76 | 0 | 1.0 | 3.0 | 0.00 | 0.02 | 0.00 | 42 | 1016.8 |
| 20260902012038 | 77 | 0 | 0.0 | 3.0 | 0.00 | 0.02 | 0.00 | 42 | 1016.7 |
| 20260902011556 | 78 | 347 | 0.0 | 6.0 | 0.00 | 0.02 | 0.00 | 39 | 1016.7 |
| 20260902011041 | 78 | 0 | 2.0 | 6.0 | 0.00 | 0.02 | 0.00 | 37 | 1016.6 |
| 20260902010539 | 78 | 333 | 2.0 | 8.0 | 0.00 | 0.02 | 0.00 | 37 | 1016.7 |
| 20260902010055 | 78 | 293 | 2.0 | 13.0 | 0.00 | 0.02 | 0.00 | 37 | 1016.8 |
| 20260902005538 | 78 | 6 | 2.0 | 13.0 | 0.00 | 0.02 | 0.00 | 38 | 1016.9 |
| 20260902005037 | 78 | 342 | 2.0 | 11.0 | 0.00 | 0.02 | 0.00 | 37 | 1016.8 |
| 20260902004603 | 78 | 21 | 1.0 | 8.0 | 0.00 | 0.02 | 0.00 | 39 | 1016.9 |
| 20260902004038 | 78 | 29 | 2.0 | 7.0 | 0.00 | 0.02 | 0.00 | 39 | 1016.9 |
| 20260902003539 | 78 | 342 | 2.0 | 9.0 | 0.00 | 0.02 | 0.00 | 38 | 1017.0 |
| 20260902003133 | 79 | 21 | 3.0 | 10.0 | 0.00 | 0.02 | 0.00 | 38 | 1016.9 |
| 20260902002538 | 79 | 6 | 2.0 | 10.0 | 0.00 | 0.02 | 0.00 | 36 | 1017.0 |
| 20260902002038 | 80 | 329 | 3.0 | 12.0 | 0.00 | 0.02 | 0.00 | 36 | 1017.1 |
| 20260902001554 | 80 | 356 | 3.0 | 12.0 | 0.00 | 0.02 | 0.00 | 35 | 1017.1 |
| 20260902001042 | 80 | 293 | 4.0 | 12.0 | 0.00 | 0.02 | 0.00 | 36 | 1017.1 |
| 20260902000538 | 80 | 327 | 3.0 | 11.0 | 0.00 | 0.02 | 0.00 | 35 | 1017.1 |
| 20260902000100 | 80 | 329 | 3.0 | 12.0 | 0.00 | 0.02 | 0.00 | 34 | 1017.1 |
| 20260901235538 | 80 | 246 | 3.0 | 12.0 | 0.00 | 0.02 | 0.00 | 35 | 1017.1 |
| 20260901235038 | 80 | 278 | 5.0 | 12.0 | 0.00 | 0.02 | 0.00 | 33 | 1017.1 |
| 20260901234558 | 80 | 313 | 5.0 | 12.0 | 0.00 | 0.02 | 0.00 | 33 | 1017.0 |
| 20260901234039 | 81 | 347 | 4.0 | 9.0 | 0.00 | 0.02 | 0.00 | 36 | 1017.1 |
| 20260901233538 | 81 | 347 | 3.0 | 9.0 | 0.00 | 0.02 | 0.00 | 35 | 1017.0 |
| 20260901233056 | 82 | 287 | 2.0 | 12.0 | 0.00 | 0.02 | 0.00 | 35 | 1017.0 |
| 20260901232538 | 82 | 299 | 4.0 | 12.0 | 0.00 | 0.02 | 0.00 | 34 | 1017.1 |
| 20260901232039 | 83 | 334 | 5.0 | 13.0 | 0.00 | 0.02 | 0.00 | 33 | 1017.1 |
| 20260901231603 | 83 | 273 | 4.0 | 13.0 | 0.00 | 0.02 | 0.00 | 33 | 1017.2 |
| 20260901231038 | 83 | 320 | 4.0 | 15.0 | 0.00 | 0.02 | 0.00 | 34 | 1017.1 |
| 20260901230538 | 83 | 342 | 4.0 | 15.0 | 0.00 | 0.02 | 0.00 | 33 | 1017.0 |
| 20260901230054 | 84 | 322 | 5.0 | 11.0 | 0.00 | 0.02 | 0.00 | 30 | 1017.0 |
| 20260901225538 | 84 | 307 | 4.0 | 11.0 | 0.00 | 0.02 | 0.00 | 30 | 1016.9 |
| 20260901225036 | 84 | 314 | 3.0 | 11.0 | 0.00 | 0.02 | 0.00 | 32 | 1017.0 |
| 20260901224555 | 84 | 83 | 3.0 | 8.0 | 0.00 | 0.02 | 0.00 | 32 | 1016.8 |
| 20260901224036 | 84 | 15 | 1.0 | 8.0 | 0.00 | 0.02 | 0.00 | 31 | 1016.8 |
| 20260901223536 | 84 | 77 | 3.0 | 15.0 | 0.00 | 0.02 | 0.00 | 28 | 1016.8 |
| 20260901223057 | 84 | 282 | 3.0 | 15.0 | 0.00 | 0.02 | 0.00 | 32 | 1016.8 |
| 20260901222536 | 84 | 83 | 4.0 | 8.0 | 0.00 | 0.02 | 0.00 | 33 | 1016.8 |
| 20260901222038 | 84 | 0 | 1.0 | 7.0 | 0.00 | 0.02 | 0.00 | 30 | 1016.6 |
| 20260901221616 | 84 | 76 | 2.0 | 7.0 | 0.00 | 0.02 | 0.00 | 30 | 1016.8 |
| 20260901221038 | 84 | 121 | 1.0 | 10.0 | 0.00 | 0.02 | 0.00 | 28 | 1016.7 |
| 20260901220534 | 84 | 19 | 3.0 | 10.0 | 0.00 | 0.02 | 0.00 | 26 | 1016.7 |
| 20260901220057 | 84 | 83 | 2.0 | 6.0 | 0.00 | 0.02 | 0.00 | 27 | 1016.7 |
| 20260901215537 | 84 | 126 | 2.0 | 7.0 | 0.00 | 0.02 | 0.00 | 26 | 1016.8 |
| 20260901215040 | 84 | 177 | 2.0 | 7.0 | 0.00 | 0.02 | 0.00 | 26 | 1016.9 |
| 20260901214557 | 84 | 187 | 2.0 | 6.0 | 0.00 | 0.02 | 0.00 | 29 | 1017.0 |
| 20260901214037 | 83 | 172 | 1.0 | 7.0 | 0.00 | 0.02 | 0.00 | 27 | 1016.9 |
| 20260901213537 | 83 | 180 | 2.0 | 7.0 | 0.00 | 0.02 | 0.00 | 29 | 1017.1 |
| 20260901213053 | 83 | 192 | 3.0 | 7.0 | 0.00 | 0.02 | 0.00 | 31 | 1017.2 |
| 20260901212537 | 82 | 0 | 1.0 | 6.0 | 0.00 | 0.02 | 0.00 | 32 | 1017.4 |
| 20260901212038 | 82 | 258 | 1.0 | 6.0 | 0.00 | 0.02 | 0.00 | 35 | 1017.4 |
| 20260901211557 | 82 | 0 | 1.0 | 6.0 | 0.00 | 0.02 | 0.00 | 33 | 1017.4 |
| 20260901211037 | 81 | 342 | 0.0 | 3.0 | 0.00 | 0.02 | 0.00 | 39 | 1017.5 |
| 20260901210537 | 81 | 0 | 0.0 | 2.0 | 0.00 | 0.02 | 0.00 | 38 | 1017.6 |
| 20260901210129 | 80 | 0 | 0.0 | 3.0 | 0.00 | 0.02 | 0.00 | 39 | 1017.7 |
| 20260901205537 | 79 | 0 | 0.0 | 3.0 | 0.00 | 0.02 | 0.00 | 43 | 1017.9 |
| 20260901205036 | 79 | 0 | 0.0 | 3.0 | 0.00 | 0.02 | 0.00 | 42 | 1017.9 |
| 20260901204555 | 78 | 0 | 0.0 | 6.0 | 0.00 | 0.02 | 0.00 | 44 | 1018.1 |
| 20260901204036 | 78 | 39 | 1.0 | 12.0 | 0.00 | 0.02 | 0.00 | 44 | 1018.1 |
| 20260901203537 | 79 | 289 | 5.0 | 12.0 | 0.00 | 0.02 | 0.00 | 46 | 1018.4 |
| 20260901203058 | 80 | 322 | 2.0 | 10.0 | 0.00 | 0.02 | 0.00 | 43 | 1018.2 |
| 20260901202537 | 81 | 320 | 5.0 | 10.0 | 0.00 | 0.02 | 0.00 | 40 | 1018.1 |
| 20260901202036 | 82 | 317 | 3.0 | 9.0 | 0.00 | 0.02 | 0.00 | 38 | 1017.9 |
| 20260901201601 | 82 | 36 | 2.0 | 6.0 | 0.00 | 0.02 | 0.00 | 36 | 1017.9 |
| 20260901201037 | 82 | 174 | 2.0 | 6.0 | 0.00 | 0.02 | 0.00 | 35 | 1017.8 |
| 20260901200537 | 82 | 342 | 0.0 | 8.0 | 0.00 | 0.02 | 0.00 | 34 | 1017.9 |
| 20260901200057 | 82 | 132 | 4.0 | 9.0 | 0.00 | 0.02 | 0.00 | 37 | 1018.0 |
| 20260901195537 | 82 | 91 | 4.0 | 12.0 | 0.00 | 0.02 | 0.00 | 34 | 1017.9 |
| 20260901195039 | 82 | 91 | 5.0 | 12.0 | 0.00 | 0.02 | 0.00 | 38 | 1017.9 |
| 20260901194603 | 82 | 106 | 5.0 | 12.0 | 0.00 | 0.02 | 0.00 | 39 | 1017.8 |
| 20260901194043 | 82 | 133 | 3.0 | 11.0 | 0.00 | 0.02 | 0.00 | 38 | 1018.0 |
| 20260901193539 | 82 | 118 | 5.0 | 11.0 | 0.00 | 0.02 | 0.00 | 41 | 1018.0 |
| 20260901193106 | 82 | 115 | 5.0 | 10.0 | 0.00 | 0.02 | 0.00 | 36 | 1018.1 |
| 20260901192542 | 82 | 97 | 4.0 | 10.0 | 0.00 | 0.02 | 0.00 | 42 | 1018.3 |
| 20260901192040 | 82 | 153 | 2.0 | 10.0 | 0.00 | 0.02 | 0.00 | 37 | 1018.3 |
| 20260901191602 | 82 | 174 | 4.0 | 10.0 | 0.00 | 0.02 | 0.00 | 38 | 1018.3 |
| 20260901191042 | 81 | 104 | 3.0 | 10.0 | 0.00 | 0.02 | 0.00 | 43 | 1018.4 |
| 20260901190538 | 82 | 80 | 4.0 | 10.0 | 0.00 | 0.02 | 0.00 | 41 | 1018.4 |
| 20260901190120 | 81 | 105 | 3.0 | 11.0 | 0.00 | 0.02 | 0.00 | 43 | 1018.4 |
| 20260901185538 | 81 | 142 | 2.0 | 12.0 | 0.00 | 0.02 | 0.00 | 44 | 1018.5 |
| 20260901185037 | 81 | 115 | 6.0 | 12.0 | 0.00 | 0.02 | 0.00 | 41 | 1018.6 |
| 20260901184556 | 81 | 158 | 6.0 | 12.0 | 0.00 | 0.02 | 0.00 | 42 | 1018.7 |
| 20260901184039 | 81 | 100 | 4.0 | 12.0 | 0.00 | 0.02 | 0.00 | 48 | 1018.7 |
| 20260901183539 | 80 | 154 | 5.0 | 12.0 | 0.00 | 0.02 | 0.00 | 44 | 1018.7 |
| 20260901183053 | 80 | 83 | 5.0 | 11.0 | 0.00 | 0.02 | 0.00 | 46 | 1018.8 |
| 20260901182539 | 80 | 103 | 6.0 | 16.0 | 0.00 | 0.02 | 0.00 | 48 | 1018.8 |
| 20260901182038 | 80 | 106 | 6.0 | 16.0 | 0.00 | 0.02 | 0.00 | 48 | 1018.9 |
| 20260901181600 | 80 | 97 | 5.0 | 14.0 | 0.00 | 0.02 | 0.00 | 44 | 1019.1 |
| 20260901181037 | 79 | 156 | 5.0 | 16.0 | 0.00 | 0.02 | 0.00 | 46 | 1019.2 |
| 20260901180538 | 80 | 111 | 4.0 | 16.0 | 0.00 | 0.02 | 0.00 | 41 | 1019.3 |
| 20260901180057 | 79 | 77 | 3.0 | 9.0 | 0.00 | 0.02 | 0.00 | 41 | 1019.4 |
| 20260901175538 | 79 | 198 | 4.0 | 9.0 | 0.00 | 0.02 | 0.00 | 41 | 1019.5 |
| 20260901175038 | 78 | 106 | 4.0 | 9.0 | 0.00 | 0.02 | 0.00 | 49 | 1019.5 |
| 20260901174557 | 78 | 165 | 2.0 | 9.0 | 0.00 | 0.02 | 0.00 | 46 | 1019.6 |
| 20260901174038 | 78 | 141 | 3.0 | 9.0 | 0.00 | 0.02 | 0.00 | 44 | 1019.6 |
| 20260901173538 | 77 | 104 | 3.0 | 9.0 | 0.00 | 0.02 | 0.00 | 51 | 1019.7 |
| 20260901173100 | 77 | 126 | 3.0 | 8.0 | 0.00 | 0.02 | 0.00 | 51 | 1019.8 |
| 20260901172538 | 77 | 120 | 2.0 | 8.0 | 0.00 | 0.02 | 0.00 | 55 | 1019.8 |
| 20260901172038 | 77 | 112 | 3.0 | 8.0 | 0.00 | 0.02 | 0.00 | 53 | 1019.8 |
| 20260901171632 | 76 | 152 | 2.0 | 7.0 | 0.00 | 0.02 | 0.00 | 61 | 1019.8 |
| 20260901171037 | 76 | 100 | 2.0 | 7.0 | 0.00 | 0.02 | 0.00 | 58 | 1019.8 |
| 20260901170538 | 76 | 113 | 2.0 | 5.0 | 0.00 | 0.02 | 0.00 | 61 | 1020.0 |
| 20260901170105 | 75 | 123 | 2.0 | 6.0 | 0.00 | 0.02 | 0.00 | 60 | 1019.8 |
| 20260901165538 | 75 | 129 | 2.0 | 6.0 | 0.00 | 0.02 | 0.00 | 64 | 1019.8 |
| 20260901165038 | 74 | 78 | 1.0 | 6.0 | 0.00 | 0.02 | 0.00 | 64 | 1019.8 |
| 20260901164617 | 73 | 79 | 1.0 | 6.0 | 0.00 | 0.02 | 0.00 | 63 | 1019.8 |
| 20260901164040 | 73 | 78 | 0.0 | 6.0 | 0.00 | 0.02 | 0.00 | 67 | 1019.8 |
| 20260901163538 | 72 | 94 | 2.0 | 6.0 | 0.00 | 0.02 | 0.00 | 66 | 1019.8 |
| 20260901163116 | 72 | 78 | 1.0 | 4.0 | 0.00 | 0.02 | 0.00 | 66 | 1019.8 |
| 20260901162537 | 72 | 200 | 0.0 | 4.0 | 0.00 | 0.02 | 0.00 | 71 | 1019.8 |
| 20260901162037 | 71 | 85 | 1.0 | 4.0 | 0.00 | 0.02 | 0.00 | 72 | 1019.8 |
| 20260901161601 | 71 | 108 | 2.0 | 4.0 | 0.00 | 0.02 | 0.00 | 72 | 1019.7 |
| 20260901161038 | 70 | 106 | 2.0 | 4.0 | 0.00 | 0.02 | 0.00 | 72 | 1019.8 |
| 20260901160537 | 68 | 165 | 1.0 | 3.0 | 0.00 | 0.02 | 0.00 | 77 | 1019.9 |
| 20260901160058 | 68 | 0 | 0.0 | 3.0 | 0.00 | 0.02 | 0.00 | 74 | 1019.9 |
| 20260901155540 | 67 | 209 | 1.0 | 3.0 | 0.00 | 0.02 | 0.00 | 75 | 1020.0 |
| 20260901155038 | 67 | 0 | 0.0 | 1.0 | 0.00 | 0.02 | 0.00 | 76 | 1020.1 |
| 20260901154600 | 66 | 0 | 0.0 | 2.0 | 0.00 | 0.02 | 0.00 | 78 | 1020.1 |
| 20260901154038 | 66 | 0 | 0.0 | 3.0 | 0.00 | 0.02 | 0.00 | 79 | 1020.0 |
| 20260901153538 | 66 | 257 | 0.0 | 3.0 | 0.00 | 0.02 | 0.00 | 80 | 1020.0 |
| 20260901153058 | 65 | 257 | 0.0 | 3.0 | 0.00 | 0.02 | 0.00 | 80 | 1020.2 |